Regional Weather Roundup
Issued by NWS

Home | Current Version | Previous Version | Text Only | Print | Product List | Glossary On
Versions: 1 2 3 4 5 6 7 8 9 10 11 12 13 14 15 16 17 18 19 20 21 22 23 24 25 26 27 28 29 30 31 32 33 34 35 36 37 38 39 40 41 42 43 44 45 46 47 48 49 50
000
ASUS45 KREV 292310
RWRNV
NEVADA REGIONAL WEATHER ROUNDUP
NATIONAL WEATHER SERVICE RENO NV
400 PM PDT FRI AUG 29 2014

NOTE: "FAIR" INDICATES FEW OR NO CLOUDS BELOW 12,000 FEET WITH NO
SIGNIFICANT WEATHER AND/OR OBSTRUCTIONS TO VISIBILITY.

NVZ001-003-004-300000-
WESTERN NEVADA

CITY           SKY/WX    TMP DP  RH WIND       PRES   REMARKS
RENO           CLOUDY    88  30  12 NW5       30.00F
CARSON CITY    FAIR      84  25  11 SW10G17   30.03F
MINDEN           N/A    N/A N/A N/A MISG        N/A
SLIDE MTN        N/A     61  36  39 W20         N/A
PYRAMID LAKE     N/A     82 N/A N/A N8          N/A
FALLON         CLOUDY    90  37  15 W9        29.95F
LOVELOCK       CLOUDY    90  39  16 SW12      29.93F
HAWTHORNE      SUNNY     90  36  14 W9        29.98F
$$

NVZ002-CAZ072-073-300000-
NORTHERN AND CENTRAL SIERRA

CITY           SKY/WX    TMP DP  RH WIND       PRES   REMARKS
TRUCKEE        CLOUDY    77  28  16 W8        30.14F
SQUAW VLY 8000 NOT AVBL
SUSANVILLE     SUNNY     84  43  23 SW16G23   30.00F
BLUE CANYON    CLOUDY    75  36  24 VRB5      30.16S
MAMMOTH LAKES  FAIR      88  19   8 W21       30.19S
BRIDGEPORT     FAIR      82  21  10 SW8G17    30.17S
$$

NVZ030-031-036-300000-
NORTHERN NEVADA

CITY           SKY/WX    TMP DP  RH WIND       PRES   REMARKS
ELKO           CLOUDY    89  30  12 SW9       29.99F
WINNEMUCCA     MOSUNNY   88  34  14 SW13G25   29.95F
WENDOVER       PTSUNNY   86  37  17 CALM      29.97F
$$

NVZ035-037-300000-
CENTRAL NEVADA

CITY           SKY/WX    TMP DP  RH WIND       PRES   REMARKS
ELY            PTSUNNY   84  27  12 SW15      30.11F
EUREKA           N/A     87  27  11 W17G24    30.06S
$$

NVZ013-014-300000-
SOUTH CENTRAL NEVADA

CITY           SKY/WX    TMP DP  RH WIND       PRES   REMARKS
TONOPAH        CLOUDY    90  23   9 S12       30.06F
$$

NVZ017-020-022-300000-
SOUTHERN NEVADA

CITY           SKY/WX    TMP DP  RH WIND       PRES   REMARKS
LAS VEGAS      MOSUNNY  103  30   8 SE7       29.77F
N. LAS VEGAS   SUNNY    102  27   7 SE7       29.80F
NELLIS AFB     SUNNY    104  32   8 E5        29.78F
HENDERSON      SUNNY    104  31   8 VRB3      29.84F
MERCURY        SUNNY    100  26   7 SW12G23   29.89F
$$


USA.gov is the U.S. government's official web portal to all federal, state and local government web resources and services.